Location: Briis
(48.6240°N, 2.1211°E)
Time: 19:12:46
(UTC+00:00)

CZ-2C R/B - Pass Details

Date: 25 September 2020
Orbit: 503 x 566 km, 97.7° (Epoch: 21 October)

Event Time Altitude Azimuth Distance (km) Brightness Sun altitude
Rises 03:52:02 0° 9° (N) 2,653 6.7 -18.7°
Reaches altitude 10° 03:54:09 10° 4° (N) 1,770 5.7 -18.4°
Maximum altitude 03:57:52 52° 288° (WNW) 663 2.9 -17.8°
Enters shadow 03:58:46 42° 243° (WSW) 774 3.1 -17.7°
